Location: Asheville, NC
(35.6000°N, 82.5500°W)
Time: 00:16:21
(UTC-05:00)

Hubble Space Telescope - Pass Details

Date: 07 October 2017
Orbit: 538 x 541 km, 28.5° (Epoch: 12 December)

Event Time Altitude Azimuth Distance (km) Brightness Sun altitude
Exits shadow 05:37:20 29° 163° (SSE) 1,006 2.1 -23.7°
Drops below altitude 10° 05:40:21 10° 119° (ESE) 1,785 4.1 -23.1°
Sets 05:42:47 0° 109° (ESE) 2,676 5.3 -22.6°
